Location: Unspecified
(52.4292°N, 19.3359°E)
Time: 22:57:54
(UTC+02:00)

SR - Pass Details

Date: 04 June 2024
Orbit: 580 x 858 km, 66.7° (Epoch: 12 June)

Event Time Altitude Azimuth Distance (km) Brightness Sun altitude
Rises 14:37:58 0° 182° (S) 3,184 ? 52.7°
Reaches altitude 10° 14:40:43 10° 170° (S) 2,213 ? 52.4°
Maximum altitude 14:44:51 26° 115° (ESE) 1,340 ? 51.9°
Drops below altitude 10° 14:48:45 10° 59° (ENE) 2,077 ? 51.4°
Sets 14:51:15 0° 47° (NE) 2,949 ? 51.1°
